User: anonymous   Login
Location: Fayetteville
(35.0530°N, 78.8790°W)
Time: 08:18:59
(UTC-04:00)
Language:

Hubble Space Telescope - Orbit

View from above orbital plane
View from above orbital plane
View from above satellite
View from above satellite

Ground track
Ground track

The orbit data is extracted from the following two-line orbital elements,

1 20580U 90037B   19203.05388889  .00000338  00000-0  96221-5 0  9997
2 20580  28.4705 351.3300 0002810 121.4010 189.4702 15.09246608405931
Epoch (UTC): 22 July 2019 01:17:36
Eccentricity: 0.0002810
inclination: 28.4705°
perigee height: 536 km
apogee height: 540 km
right ascension of ascending node: 351.3300°
argument of perigee: 121.4010°
revolutions per day: 15.09246608
mean anomaly at epoch: 189.4702°
orbit number at epoch: 40593

The dashed part of the orbit path shows where the satellite is in the earth's shadow,  

DLR